Temp
-4 -4 -3 -3 -4 -4 -5 -5 -5 -6 -7 -7 -7 -7 -8 -7 -7 -6 -6 -6 -7 -5 -5 -5 -5 -5 -5 -5 -5 -5 -5 -5 -5 -5 -5 -5 -5 -6 -6 -6 -6 -6 -5 -6
-4 -3 -4 -5 -5 -5 -5 -5 -4 -7 -6 -6 -7 -7 -8 -8 -7 -7 -7 -6 -7 -6 -5 -5 -6 -5 -5 -5 -5 -5 -5 -5 -5 -5 -5 -5 -5 -6 -6 -6 -6 -6 -5 -5
-4 -4 -5 -5 -5 -5 -5 -5 -5 -6 -7 -7 -6 -7 -8 -7 -8 -8 -7 -5 -6 -7 -6 -6 -5 -6 -5 -5 -5 -5 -5 -5 -5 -5 -5 -5 -5 -6 -6 -5 -5 -5 -5 -6
-5 -6 -6 -5 -5 -5 -4 -5 -5 -6 -8 -8 -6 -7 -7 -7 -7 -8 -8 -6 -6 -6 -6 -6 -5 -5 -5 -5 -5 -5 -5 -5 -5 -5 -5 -5 -5 -5 -5 -5 -5 -5 -5 -5
-4 -5 -5 -5 -4 -5 -4 -6 -6 -6 -8 -7 -7 -7 -6 -7 -7 -7 -5 -7 -6 -5 -7 -6 -5 -5 -5 -5 -5 -5 -5 -4 -4 -4 -5 -4 -5 -5 -5 -5 -5 -5 -5 -5
-6 -6 -7 -5 -6 -5 -5 -6 -6 -7 -8 -8 -7 -7 -7 -7 -7 -6 -6 -7 -6 -5 -6 -5 -5 -5 -5 -5 -4 -4 -4 -4 -4 -4 -4 -4 -4 -4 -4 -4 -4 -5 -5 -5
-8 -7 -6 -6 -6 -6 -6 -7 -7 -8 -8 -7 -7 -8 -7 -7 -7 -7 -7 -7 -6 -6 -6 -6 -5 -5 -5 -4 -4 -4 -4 -4 -4 -4 -4 -4 -4 -4 -4 -4 -4 -5 -5 -5
-7 -6 -6 -7 -6 -6 -6 -6 -4 -5 -6 -5 -6 -6 -5 -6 -7 -8 -8 -7 -7 -7 -5 -5 -5 -5 -5 -4 -5 -5 -4 -5 -4 -4 -4 -5 -4 -4 -4 -4 -4 -4 -4 -5
-9 -7 -8 -7 -7 -6 -6 -6 -6 -7 -6 -6 -6 -6 -5 -5 -6 -7 -8 -8 -6 -7 -6 -5 -6 -5 -5 -5 -5 -5 -5 -5 -4 -4 -4 -4 -4 -4 -4 -4 -4 -4 -4 -5
-10 -11 -10 -8 -9 -8 -6 -8 -8 -7 -7 -8 -7 -6 -5 -6 -6 -7 -6 -7 -7 -7 -6 -5 -6 -6 -5 -5 -5 -4 -4 -4 -4 -4 -4 -4 -4 -4 -4 -4 -5 -5 -5 -5
-11 -11 -8 -11 -10 -6 -8 -8 -8 -8 -8 -8 -8 -6 -5 -5 -5 -6 -6 -7 -8 -7 -7 -5 -6 -6 -5 -5 -5 -4 -4 -4 -4 -4 -4 -4 -4 -4 -4 -4 -5 -5 -5 -5
-12 -11 -10 -9 -8 -9 -9 -8 -8 -7 -6 -6 -6 -5 -7 -6 -5 -6 -6 -6 -7 -7 -7 -5 -6 -7 -5 -5 -5 -4 -4 -4 -4 -4 -4 -4 -4 -4 -4 -4 -4 -4 -5 -5
-13 -11 -10 -9 -10 -10 -10 -8 -8 -8 -8 -7 -6 -6 -6 -6 -5 -6 -6 -6 -7 -7 -7 -6 -5 -6 -6 -5 -5 -4 -4 -4 -4 -4 -4 -4 -4 -4 -4 -4 -5 -4 -5 -5
-12 -11 -10 -9 -8 -9 -10 -10 -9 -9 -7 -7 -6 -6 -7 -6 -6 -6 -6 -6 -7 -7 -7 -7 -6 -5 -6 -6 -5 -4 -4 -4 -4 -4 -4 -5 -5 -4 -5 -6 -5 -5 -5 -4
-12 -10 -10 -9 -9 -10 -10 -10 -10 -9 -8 -6 -6 -7 -7 -7 -6 -6 -6 -6 -7 -8 -8 -8 -7 -5 -6 -6 -5 -5 -5 -4 -4 -4 -5 -5 -5 -5 -5 -6 -6 -6 -6 -6
-12 -12 -11 -10 -9 -10 -10 -10 -9 -8 -8 -7 -6 -7 -8 -7 -7 -7 -7 -6 -6 -7 -8 -8 -8 -6 -5 -5 -6 -5 -5 -5 -5 -5 -6 -6 -6 -6 -6 -6 -6 -6 -6 -6
-12 -12 -11 -10 -10 -10 -8 -8 -10 -9 -8 -8 -6 -7 -8 -8 -7 -7 -7 -7 -7 -7 -8 -8 -8 -8 -5 -5 -5 -5 -5 -5 -6 -6 -6 -6 -6 -6 -6 -6 -6 -6 -6 -6
-13 -13 -11 -10 -10 -9 -8 -10 -11 -10 -9 -8 -7 -8 -8 -8 -8 -8 -8 -7 -6 -6 -7 -7 -6 -5 -5 -5 -5 -6 -7 -6 -6 -6 -6 -7 -7 -7 -7 -7 -6 -6 -7 -7
-13 -13 -11 -12 -10 -9 -10 -10 -10 -10 -10 -9 -8 -9 -9 -9 -9 -8 -8 -7 -6 -6 -6 -5 -5 -5 -5 -6 -6 -6 -6 -6 -6 -5 -6 -6 -6 -7 -7 -7 -7 -7 -7 -7
-14 -13 -13 -12 -11 -11 -10 -10 -10 -11 -10 -10 -8 -9 -10 -10 -9 -8 -6 -5 -4 -4 -4 -5 -5 -6 -6 -6 -6 -6 -6 -6 -6 -5 -6 -6 -6 -6 -7 -7 -7 -7 -7 -7
-14 -14 -14 -13 -12 -11 -9 -10 -10 -10 -10 -10 -9 -10 -10 -8 -9 -8 -5 -4 -4 -5 -5 -5 -6 -6 -6 -5 -5 -6 -6 -5 -5 -6 -6 -6 -6 -6 -6 -7 -7 -7 -7 -7
-17 -14 -14 -13 -12 -11 -10 -10 -10 -10 -10 -11 -10 -11 -8 -6 -5 -5 -4 -2 -4 -4 -5 -5 -5 -5 -5 -5 -5 -5 -5 -5 -5 -6 -6 -7 -7 -7 -7 -6 -6 -7 -7 -7
-17 -16 -14 -13 -13 -11 -11 -10 -10 -10 -10 -11 -10 -10 -8 -6 -5 -4 -3 -3 -4 -5 -5 -5 -5 -5 -5 -4 -4 -4 -4 -4 -5 -5 -6 -6 -6 -6 -6 -5 -5 -4 -5 -5
-19 -17 -15 -14 -13 -11 -12 -12 -11 -10 -10 -10 -10 -9 -7 -6 -5 -4 -4 -4 -4 -5 -5 -6 -5 -5 -5 -4 -4 -4 -4 -4 -4 -4 -4 -4 -5 -5 -5 -4 -4 -4 -4 -4
-19 -18 -15 -14 -14 -13 -12 -12 -11 -10 -9 -9 -9 -8 -8 -7 -6 -5 -4 -4 -5 -5 -7 -7 -6 -5 -5 -4 -4 -5 -5 -5 -4 -4 -4 -4 -4 -4 -4 -4 -4 -4 -4 -4
-18 -17 -16 -13 -14 -12 -13 -13 -12 -10 -10 -9 -8 -8 -8 -8 -7 -7 -7 -7 -7 -8 -7 -6 -6 -6 -5 -5 -5 -5 -5 -4 -4 -4 -4 -4 -4 -4 -4 -4 -4 -4 -4 -4
Height
5826 5825 5832 5840 5841 5847 5849 5852 5856 5863 5868 5872 5877 5879 5874 5875 5874 5881 5883 5889 5886 5886 5886 5890 5894 5895 5898 5903 5907 5911 5914 5919 5923 5925 5927 5930 5932 5934 5937 5939 5940 5941 5942 5944
5814 5821 5831 5831 5833 5838 5842 5846 5850 5859 5864 5866 5871 5876 5879 5869 5871 5874 5875 5880 5884 5886 5889 5888 5890 5891 5896 5901 5906 5910 5914 5917 5922 5925 5927 5930 5933 5935 5937 5940 5942 5943 5943 5945
5810 5824 5819 5822 5825 5827 5835 5840 5848 5854 5862 5865 5868 5871 5876 5872 5872 5873 5873 5878 5882 5887 5890 5889 5893 5892 5895 5900 5905 5910 5913 5916 5920 5924 5927 5931 5933 5935 5937 5939 5942 5943 5945 5946
5801 5809 5808 5814 5818 5823 5828 5838 5844 5848 5853 5855 5859 5863 5868 5872 5872 5873 5870 5882 5881 5885 5890 5887 5892 5896 5896 5899 5902 5907 5912 5916 5920 5923 5927 5930 5932 5935 5937 5939 5940 5942 5944 5946
5794 5799 5801 5805 5816 5818 5823 5832 5837 5843 5844 5848 5853 5858 5866 5870 5867 5865 5872 5874 5878 5885 5886 5887 5888 5896 5898 5899 5902 5906 5910 5914 5920 5924 5926 5930 5933 5935 5937 5938 5939 5942 5944 5945
5779 5787 5791 5800 5807 5808 5816 5821 5827 5835 5837 5834 5841 5849 5856 5862 5868 5868 5871 5872 5879 5879 5884 5884 5886 5893 5897 5899 5902 5905 5909 5913 5918 5923 5926 5929 5932 5935 5937 5939 5940 5942 5944 5945
5763 5772 5782 5789 5796 5800 5805 5810 5816 5821 5821 5824 5838 5843 5848 5859 5866 5867 5867 5869 5873 5874 5883 5886 5884 5889 5894 5897 5900 5904 5908 5912 5916 5921 5925 5928 5931 5934 5937 5939 5941 5942 5944 5945
5753 5762 5768 5777 5783 5792 5799 5805 5808 5812 5817 5828 5833 5831 5840 5853 5859 5865 5867 5862 5864 5872 5878 5884 5881 5887 5892 5896 5899 5902 5906 5910 5915 5918 5923 5927 5930 5933 5935 5937 5940 5942 5942 5944
5738 5750 5762 5770 5778 5785 5792 5792 5804 5809 5818 5823 5826 5835 5842 5847 5850 5855 5862 5862 5861 5867 5872 5877 5880 5885 5889 5893 5898 5901 5904 5908 5912 5916 5921 5925 5928 5931 5933 5935 5937 5939 5941 5941
5724 5734 5750 5763 5772 5777 5782 5794 5797 5800 5806 5812 5821 5828 5836 5841 5846 5850 5852 5857 5860 5861 5865 5872 5879 5883 5887 5890 5895 5898 5902 5906 5910 5914 5918 5921 5925 5928 5930 5932 5933 5935 5937 5939
5703 5718 5737 5750 5757 5768 5774 5779 5788 5799 5802 5808 5815 5821 5831 5838 5843 5845 5850 5852 5857 5860 5863 5871 5877 5881 5883 5887 5892 5896 5900 5904 5908 5912 5915 5919 5921 5924 5927 5928 5929 5931 5933 5935
5685 5703 5717 5730 5748 5763 5767 5774 5782 5786 5796 5803 5811 5817 5822 5826 5832 5841 5846 5851 5853 5856 5860 5866 5874 5879 5879 5885 5890 5894 5897 5901 5905 5908 5912 5916 5919 5922 5923 5925 5926 5928 5928 5930
5673 5690 5708 5722 5731 5741 5756 5765 5776 5783 5793 5797 5807 5814 5819 5822 5827 5833 5840 5846 5851 5852 5856 5861 5869 5874 5878 5881 5886 5892 5895 5897 5902 5906 5910 5914 5917 5920 5922 5924 5925 5926 5926 5927
5657 5676 5691 5708 5725 5738 5746 5757 5768 5776 5782 5792 5800 5810 5813 5818 5824 5829 5834 5840 5846 5852 5852 5856 5864 5870 5875 5877 5882 5887 5891 5895 5899 5903 5908 5911 5914 5918 5920 5921 5922 5923 5924 5925
5650 5668 5685 5702 5715 5727 5740 5752 5761 5767 5777 5785 5798 5804 5811 5818 5822 5826 5833 5838 5840 5847 5851 5851 5857 5864 5870 5874 5878 5882 5887 5891 5896 5900 5904 5908 5911 5915 5917 5919 5920 5921 5922 5923
5642 5658 5671 5690 5709 5724 5730 5736 5754 5764 5773 5782 5793 5801 5807 5815 5819 5822 5826 5832 5836 5840 5846 5849 5851 5856 5862 5870 5874 5877 5881 5887 5892 5897 5901 5904 5908 5912 5914 5916 5918 5919 5920 5921
5636 5654 5667 5691 5705 5709 5719 5731 5751 5760 5768 5777 5786 5797 5799 5808 5813 5819 5821 5826 5830 5833 5837 5842 5845 5850 5855 5863 5871 5875 5879 5883 5888 5893 5898 5902 5906 5909 5911 5913 5916 5917 5918 5919
5631 5646 5662 5683 5688 5701 5723 5729 5736 5750 5764 5775 5784 5789 5793 5802 5808 5811 5813 5817 5821 5824 5829 5834 5839 5844 5849 5856 5862 5868 5872 5878 5885 5890 5894 5898 5903 5906 5908 5910 5912 5914 5915 5917
5628 5644 5660 5671 5678 5702 5716 5717 5727 5742 5750 5759 5769 5779 5788 5785 5789 5794 5798 5804 5810 5817 5823 5829 5834 5840 5844 5849 5855 5861 5867 5873 5878 5884 5889 5893 5898 5901 5904 5906 5908 5909 5911 5912
5624 5636 5652 5662 5679 5688 5689 5703 5714 5726 5738 5749 5758 5767 5770 5774 5779 5781 5788 5798 5806 5810 5817 5824 5830 5836 5842 5845 5850 5857 5863 5868 5872 5878 5882 5886 5890 5893 5898 5901 5902 5904 5906 5907
5619 5630 5644 5658 5665 5668 5689 5696 5707 5714 5724 5733 5742 5747 5747 5761 5765 5771 5778 5791 5800 5807 5813 5820 5826 5833 5837 5841 5845 5849 5854 5860 5867 5871 5874 5878 5882 5886 5889 5891 5894 5896 5898 5900
5607 5624 5641 5653 5659 5666 5676 5676 5687 5694 5705 5719 5727 5730 5745 5753 5757 5762 5772 5783 5795 5802 5808 5814 5820 5825 5830 5835 5838 5842 5847 5853 5858 5862 5867 5870 5873 5876 5878 5881 5884 5886 5889 5891
5612 5615 5627 5635 5638 5654 5658 5669 5670 5680 5693 5705 5716 5727 5739 5748 5754 5758 5766 5777 5790 5796 5802 5808 5813 5818 5821 5825 5830 5834 5838 5844 5849 5852 5856 5860 5864 5867 5869 5871 5874 5877 5879 5881
5611 5615 5618 5628 5634 5642 5646 5647 5658 5676 5688 5696 5710 5722 5736 5739 5746 5753 5761 5770 5780 5790 5796 5801 5805 5811 5815 5818 5822 5828 5834 5837 5841 5844 5848 5852 5854 5858 5860 5863 5865 5867 5870 5872
5603 5605 5615 5630 5637 5645 5658 5666 5673 5683 5694 5702 5708 5717 5726 5732 5740 5749 5755 5762 5771 5784 5790 5793 5797 5802 5806 5810 5817 5822 5825 5829 5833 5836 5839 5843 5847 5850 5852 5854 5856 5859 5860 5862
5609 5613 5621 5636 5643 5648 5659 5666 5675 5681 5687 5692 5702 5707 5712 5722 5730 5739 5747 5755 5766 5774 5777 5781 5787 5793 5798 5803 5809 5813 5815 5819 5823 5827 5830 5834 5837 5840 5843 5844 5846 5849 5851 5852
Wind_Speed
31 36 31 27 32 31 31 32 27 25 27 18 17 13 16 19 26 15 24 2 8 11 11 4 9 15 19 20 19 19 18 18 16 17 16 15 13 10 8 6 5 4 6 6
40 32 24 26 31 35 35 33 26 21 23 21 25 17 19 27 23 25 31 9 5 9 10 7 6 12 19 20 20 20 20 21 19 18 18 15 13 9 8 8 7 5 5 6
37 22 31 31 33 37 38 33 23 26 20 28 29 18 27 31 29 33 30 17 3 7 9 5 7 12 18 19 18 19 22 22 22 20 18 16 14 12 11 8 7 6 6 6
36 34 37 35 33 32 34 31 26 29 27 35 36 33 31 27 32 30 33 17 7 7 7 2 7 11 16 20 20 20 21 22 21 20 19 18 17 14 10 9 8 6 6 5
37 37 40 39 32 30 29 34 32 34 36 24 30 24 18 22 28 28 26 22 18 13 7 8 9 11 16 18 18 19 22 21 19 19 19 17 14 12 12 12 11 7 6 4
45 39 42 37 32 35 29 37 40 43 43 45 38 30 29 24 29 27 23 25 17 10 14 10 11 12 15 18 17 17 18 20 20 19 18 16 14 13 12 11 9 8 8 6
52 47 43 42 39 38 34 38 41 51 56 52 41 40 29 33 28 25 25 31 19 12 10 11 10 12 16 18 17 16 16 17 18 17 16 15 14 13 12 11 9 8 7 6
55 52 51 47 45 42 37 36 41 49 54 44 49 51 45 37 33 26 29 31 23 20 13 12 10 13 16 17 18 16 17 17 17 17 16 13 11 11 10 10 10 10 9 6
59 56 45 46 44 43 39 45 40 41 43 52 52 45 43 34 34 33 33 32 33 21 22 9 8 13 17 18 18 19 18 20 20 18 16 13 11 11 11 11 11 10 11 11
57 54 47 41 41 44 45 34 41 41 41 43 39 35 30 33 39 41 34 39 20 28 27 3 9 12 17 19 20 19 19 19 19 18 16 15 14 13 13 13 14 15 15 14
58 56 54 38 46 49 48 44 40 37 39 34 27 24 13 10 11 18 39 30 25 31 32 8 9 9 14 18 19 21 20 19 17 17 16 14 13 11 11 14 15 17 17 16
58 64 58 57 49 43 44 47 40 43 38 36 27 23 17 15 23 19 21 40 31 28 31 18 12 11 13 14 18 20 20 20 20 19 17 14 10 11 10 9 8 7 8 7
63 68 61 57 54 51 42 46 47 40 36 40 31 27 21 18 18 23 18 24 40 36 34 32 22 15 11 15 16 19 22 22 20 18 16 12 11 10 6 4 4 4 2 1
72 73 72 62 60 52 47 39 44 47 43 37 37 27 16 16 16 18 18 19 26 42 39 41 30 21 15 15 18 20 20 21 19 18 15 10 12 9 6 5 3 2 3 4
72 76 76 66 61 58 45 45 39 47 46 40 36 33 19 13 16 24 21 19 26 36 36 45 38 26 20 18 24 23 21 19 17 15 13 13 14 9 8 7 5 3 5 5
72 72 78 70 61 49 43 40 40 38 46 40 33 35 25 23 22 25 27 28 25 36 39 39 43 34 29 22 27 30 26 23 20 18 15 16 15 12 9 6 5 3 1 1
72 70 76 70 60 53 46 41 34 26 36 45 38 36 25 26 29 31 27 34 37 36 45 46 44 38 26 16 15 27 26 28 25 19 18 16 15 11 8 8 5 5 5 3
73 75 75 74 65 60 45 46 50 38 19 36 38 32 27 21 22 26 28 28 31 40 45 44 41 36 30 22 23 27 31 29 26 22 20 18 17 13 11 10 7 8 11 12
70 72 71 71 67 61 49 45 39 44 40 46 49 35 26 33 33 37 41 41 39 41 42 37 32 31 26 26 28 28 30 25 26 23 22 22 20 19 18 13 11 12 12 14
62 71 69 74 63 61 56 56 51 50 50 51 54 44 42 40 39 42 43 47 42 39 39 40 36 31 30 28 25 24 26 28 27 21 19 23 25 24 22 19 17 18 19 19
60 65 65 71 59 55 61 63 57 53 52 59 58 50 48 52 49 49 46 41 44 41 40 40 41 38 36 33 30 30 30 29 27 27 26 25 24 25 27 28 28 25 27 28
35 59 64 60 74 56 61 59 67 66 63 62 64 54 61 56 58 57 50 42 37 38 37 35 35 32 31 32 34 33 31 28 27 26 26 29 30 29 32 32 30 30 31 32
29 46 67 67 56 71 52 63 76 71 71 69 67 64 65 64 62 61 55 48 35 34 38 39 35 33 32 31 29 29 29 28 35 36 36 34 30 31 34 33 30 29 29 30
29 39 58 71 63 69 53 55 66 79 76 73 69 75 78 74 72 66 59 54 49 43 35 35 36 37 36 36 34 27 24 25 25 29 33 35 36 37 36 31 28 27 27 29
35 43 59 61 63 71 54 42 52 62 71 69 73 75 78 78 73 65 61 61 56 34 36 41 42 40 39 38 35 29 29 30 28 29 31 31 32 33 33 35 33 33 32 31
45 39 46 65 60 66 67 51 40 53 60 69 75 74 73 72 71 63 59 57 47 42 47 50 46 41 39 38 34 33 35 34 32 33 35 35 35 36 37 38 36 36 36 36
Wind_Direction
232 233 234 241 238 235 230 233 227 204 199 208 218 222 261 270 269 308 285 300 324 347 338 307 206 196 194 192 182 185 182 180 182 177 175 172 169 164 153 143 134 119 105 95
232 236 231 229 229 230 229 229 224 206 193 214 219 229 225 257 282 293 293 228 294 344 326 313 251 177 179 192 192 188 189 182 184 185 179 172 169 172 171 167 160 150 128 113
237 230 234 227 225 226 223 228 229 195 177 201 234 227 209 237 261 272 301 278 298 327 312 308 252 184 182 192 196 196 195 194 191 191 183 175 174 183 187 177 167 167 144 120
231 225 228 224 226 230 226 219 219 188 186 228 218 221 214 220 245 256 275 284 304 262 272 235 233 220 187 194 199 198 202 200 196 189 184 183 187 191 177 178 186 178 148 129
229 223 227 225 221 228 225 211 213 198 192 200 232 236 215 221 249 258 285 291 309 231 229 234 201 220 206 202 198 202 203 203 200 195 193 192 194 195 191 193 193 169 171 174
224 223 223 221 218 219 212 207 205 198 195 211 207 225 212 229 241 259 271 274 287 313 176 225 204 214 211 206 204 207 209 204 203 205 204 200 198 202 202 201 202 190 192 209
220 219 217 218 212 211 211 204 205 196 201 207 203 217 214 219 231 251 267 272 285 315 313 239 209 207 205 201 204 210 208 205 204 207 207 207 209 203 204 209 207 217 215 228
221 216 216 212 212 212 213 218 222 213 211 218 209 212 214 194 206 227 249 261 273 273 290 203 190 216 209 204 208 207 200 193 196 200 206 213 205 202 207 214 215 215 229 230
217 216 216 216 213 214 205 217 214 217 216 218 223 223 224 220 207 213 209 243 256 270 276 165 183 213 215 202 206 207 207 195 195 201 205 203 203 204 213 223 232 237 237 245
210 218 214 213 218 209 212 217 213 213 216 221 226 226 228 223 221 215 210 222 232 256 267 251 185 206 211 206 207 208 209 204 201 203 200 200 201 210 222 235 241 244 246 246
205 208 203 197 208 211 206 212 215 221 209 214 213 211 141 204 206 223 223 205 221 238 253 222 199 209 210 215 211 207 204 205 204 204 204 206 213 222 240 250 247 247 248 242
201 200 199 196 198 212 213 210 209 215 216 218 214 176 172 212 216 218 214 222 211 228 243 234 204 213 215 216 219 210 207 203 206 208 206 206 220 232 229 231 231 229 236 226
198 196 196 194 190 198 217 214 218 213 214 213 201 168 207 203 221 198 229 211 210 220 227 238 228 201 215 214 221 216 209 207 211 209 207 212 213 198 193 196 210 229 272 333
196 194 194 190 197 191 201 217 210 214 214 208 200 183 198 226 208 201 208 231 212 212 226 238 229 210 204 213 217 220 222 218 205 202 210 213 208 206 187 182 198 209 102 83
198 194 194 193 186 191 195 215 222 216 214 210 191 196 183 209 214 211 219 224 222 207 223 232 231 221 206 218 213 210 219 222 211 205 221 219 220 219 203 186 169 127 107 89
196 189 193 186 183 184 194 195 221 218 216 213 187 196 196 189 206 223 231 233 227 221 215 223 230 227 222 215 217 203 203 211 213 217 219 222 228 224 210 204 191 172 194 87
198 191 193 182 177 188 184 183 208 220 220 209 194 183 209 217 236 235 246 240 238 239 213 212 223 232 228 204 208 219 205 204 211 215 216 223 228 220 217 223 217 238 247 276
200 197 193 181 189 191 175 174 194 202 208 205 181 189 221 226 227 235 242 235 224 228 216 215 222 228 228 221 200 190 211 213 210 207 201 204 210 207 217 229 237 249 263 274
197 199 193 188 190 183 174 181 173 191 196 190 182 195 215 221 216 221 219 216 214 220 227 229 228 230 233 232 224 205 209 220 219 216 210 209 213 221 225 223 237 253 267 273
189 197 194 192 189 190 189 181 174 178 193 187 190 198 209 210 215 222 220 211 212 218 223 228 232 233 235 240 239 234 227 222 224 225 226 226 225 230 233 235 244 256 261 273
184 192 194 194 194 191 189 185 177 180 179 189 194 200 194 208 214 219 226 208 205 216 224 230 233 237 239 236 230 228 232 231 231 228 233 239 245 240 235 241 244 250 261 265
172 181 195 192 201 192 192 182 186 185 181 186 195 198 205 203 213 223 225 223 205 207 213 219 225 227 227 231 230 230 231 231 228 223 234 240 237 243 244 241 237 238 245 258
200 184 187 195 185 194 186 190 192 189 185 184 192 203 202 201 212 224 229 228 213 209 217 220 224 224 223 227 225 220 222 213 206 211 225 233 238 243 245 245 245 245 248 251
201 205 195 196 200 195 187 194 192 195 189 186 190 195 198 205 210 221 231 234 230 216 221 221 221 223 225 228 232 234 241 237 227 221 217 219 225 234 243 249 252 253 256 258
212 213 209 201 206 212 204 197 204 195 201 196 196 199 201 209 218 224 231 235 235 230 225 229 229 230 230 230 231 233 238 241 237 234 235 231 230 232 238 247 250 252 255 259
228 232 228 215 214 216 218 215 206 206 204 206 211 213 219 220 222 223 227 232 235 232 227 228 230 230 233 237 236 237 239 239 237 239 240 241 241 242 245 247 250 253 257 259